| time (UTC) | temp C | wind direction | speed KPH | gust KPH | rain 1hr cm | rain 24hr cm | rain mn cm | humidity % | barometer mb |
| 20260903073704 | 13 | 78 | 4.8 | 9.7 | 0.00 | 0.53 | 0.00 | 86 | 1007.5 |
| 20260903073204 | 13 | 101 | 4.8 | 11.3 | 0.00 | 0.53 | 0.00 | 85 | 1007.4 |
| 20260903070703 | 13 | 105 | 3.2 | 8.0 | 0.00 | 0.53 | 0.00 | 83 | 1007.2 |
| 20260903070205 | 13 | 115 | 3.2 | 12.9 | 0.00 | 0.53 | 0.00 | 82 | 1007.3 |
| 20260903063704 | 14 | 122 | 4.8 | 12.9 | 0.00 | 0.53 | 0.53 | 82 | 1007.2 |
| 20260903063204 | 13 | 130 | 8.0 | 16.1 | 0.00 | 0.53 | 0.53 | 82 | 1007.2 |
| 20260903060704 | 13 | 118 | 4.8 | 11.3 | 0.00 | 0.53 | 0.53 | 85 | 1007.3 |
| 20260903060204 | 13 | 106 | 3.2 | 9.7 | 0.00 | 0.53 | 0.53 | 86 | 1007.3 |
| 20260903053703 | 13 | 118 | 4.8 | 8.0 | 0.00 | 0.53 | 0.53 | 88 | 1007.3 |
| 20260903050703 | 13 | 118 | 3.2 | 4.8 | 0.00 | 0.53 | 0.53 | 89 | 1007.2 |
| 20260903050205 | 13 | 90 | 3.2 | 4.8 | 0.00 | 0.53 | 0.53 | 88 | 1007.3 |
| 20260903043704 | 14 | 90 | 3.2 | 9.7 | 0.00 | 0.53 | 0.53 | 89 | 1007.2 |
| 20260903043204 | 14 | 98 | 4.8 | 11.3 | 0.00 | 0.53 | 0.53 | 89 | 1007.2 |
| 20260903033206 | 15 | 110 | 3.2 | 12.9 | 0.00 | 0.53 | 0.53 | 89 | 1006.5 |
| 20260903030203 | 15 | 90 | 3.2 | 8.0 | 0.00 | 0.53 | 0.53 | 89 | 1006.2 |
| 20260903023704 | 15 | 104 | 3.2 | 4.8 | 0.00 | 0.53 | 0.53 | 85 | 1005.8 |
| 20260903023204 | 16 | 112 | 3.2 | 14.5 | 0.00 | 0.53 | 0.53 | 84 | 1005.8 |
| 20260903020703 | 16 | 147 | 4.8 | 19.3 | 0.03 | 0.53 | 0.53 | 82 | 1005.6 |
| 20260903013704 | 16 | 183 | 4.8 | 12.9 | 0.05 | 0.53 | 0.53 | 87 | 1005.5 |
| 20260903013204 | 16 | 176 | 6.4 | 24.1 | 0.08 | 0.53 | 0.53 | 87 | 1005.5 |
| 20260903010704 | 15 | 173 | 8.0 | 24.1 | 0.08 | 0.51 | 0.51 | 86 | 1004.8 |
| 20260903010204 | 15 | 157 | 9.7 | 22.5 | 0.08 | 0.51 | 0.51 | 86 | 1004.8 |
| 20260903003204 | 16 | 222 | 4.8 | 19.3 | 0.03 | 0.46 | 0.46 | 91 | 1004.8 |
| 20260903000703 | 16 | 135 | 1.6 | 4.8 | 0.03 | 0.43 | 0.43 | 90 | 1004.0 |
| 20260903000204 | 16 | 127 | 1.6 | 9.7 | 0.03 | 0.43 | 0.43 | 90 | 1004.0 |
| 20260902233704 | 16 | 132 | 3.2 | 11.3 | 0.10 | 0.43 | 0.43 | 90 | 1004.0 |
| 20260902233204 | 16 | 71 | 4.8 | 16.1 | 0.13 | 0.43 | 0.43 | 90 | 1003.9 |
| 20260902230204 | 16 | 98 | 3.2 | 8.0 | 0.18 | 0.41 | 0.41 | 90 | 1004.5 |
| 20260902223704 | 16 | 310 | 0.0 | 3.2 | 0.18 | 0.33 | 0.33 | 89 | 1004.2 |
| 20260902223204 | 16 | 177 | 1.6 | 4.8 | 0.15 | 0.30 | 0.30 | 88 | 1004.3 |
| 20260902220204 | 16 | 254 | 0.0 | 4.8 | 0.13 | 0.23 | 0.23 | 88 | 1004.5 |
| 20260902213704 | 16 | 271 | 1.6 | 3.2 | 0.08 | 0.15 | 0.15 | 85 | 1004.5 |
| 20260902213203 | 17 | 271 | 1.6 | 11.3 | 0.08 | 0.15 | 0.15 | 85 | 1004.5 |
| 20260902210704 | 17 | 168 | 3.2 | 8.0 | 0.03 | 0.10 | 0.10 | 81 | 1004.5 |
| 20260902210204 | 17 | 196 | 1.6 | 8.0 | 0.03 | 0.10 | 0.10 | 79 | 1004.5 |
| 20260902203704 | 18 | 270 | 4.8 | 9.7 | 0.08 | 0.08 | 0.08 | 76 | 1004.4 |
| 20260902203203 | 18 | 228 | 3.2 | 14.5 | 0.08 | 0.08 | 0.08 | 74 | 1004.4 |
| 20260902200704 | 18 | 294 | 0.0 | 3.2 | 0.08 | 0.08 | 0.08 | 81 | 1004.6 |
| 20260902200205 | 17 | 327 | 3.2 | 27.4 | 0.08 | 0.08 | 0.08 | 80 | 1004.6 |
| 20260902193704 | 17 | 201 | 9.7 | 25.7 | 0.00 | 0.00 | 0.00 | 76 | 1005.0 |
| 20260902193204 | 18 | 252 | 11.3 | 29.0 | 0.00 | 0.00 | 0.00 | 68 | 1004.9 |
| 20260902190205 | 21 | 161 | 3.2 | 14.5 | 0.00 | 0.00 | 0.00 | 59 | 1004.6 |
| 20260902183704 | 20 | 112 | 4.8 | 4.8 | 0.00 | 0.00 | 0.00 | 63 | 1004.8 |
| 20260902183204 | 20 | 169 | 3.2 | 12.9 | 0.00 | 0.00 | 0.00 | 64 | 1004.8 |
| 20260902180704 | 18 | 105 | 3.2 | 4.8 | 0.00 | 0.00 | 0.00 | 69 | 1005.1 |
| 20260902180204 | 18 | 140 | 0.0 | 11.3 | 0.00 | 0.00 | 0.00 | 67 | 1005.2 |
| 20260902173704 | 18 | 135 | 1.6 | 4.8 | 0.00 | 0.00 | 0.00 | 69 | 1005.5 |
| 20260902173204 | 18 | 159 | 1.6 | 11.3 | 0.00 | 0.00 | 0.00 | 69 | 1005.5 |
| 20260902170704 | 18 | 129 | 3.2 | 8.0 | 0.00 | 0.00 | 0.00 | 68 | 1005.8 |
| 20260902163704 | 18 | 163 | 4.8 | 9.7 | 0.00 | 0.00 | 0.00 | 68 | 1006.0 |
| 20260902163204 | 18 | 169 | 4.8 | 9.7 | 0.00 | 0.00 | 0.00 | 68 | 1006.1 |
| 20260902160704 | 18 | 143 | 1.6 | 3.2 | 0.00 | 0.00 | 0.00 | 72 | 1006.2 |
| 20260902160204 | 18 | 143 | 3.2 | 8.0 | 0.00 | 0.00 | 0.00 | 72 | 1006.2 |
| 20260902153704 | 17 | 167 | 3.2 | 4.8 | 0.00 | 0.00 | 0.00 | 80 | 1006.5 |
| 20260902150704 | 16 | 74 | 1.6 | 4.8 | 0.00 | 0.00 | 0.00 | 84 | 1006.8 |
| 20260902150204 | 16 | 61 | 3.2 | 4.8 | 0.00 | 0.00 | 0.00 | 85 | 1006.9 |
| 20260902143203 | 15 | 80 | 1.6 | 8.0 | 0.00 | 0.00 | 0.00 | 86 | 1007.4 |
| 20260902140704 | 15 | 101 | 0.0 | 0.0 | 0.00 | 0.00 | 0.00 | 88 | 1007.4 |
| 20260902133703 | 15 | 101 | 1.6 | 4.8 | 0.00 | 0.00 | 0.00 | 89 | 1007.4 |
| 20260902133203 | 14 | 101 | 1.6 | 4.8 | 0.00 | 0.00 | 0.00 | 90 | 1007.4 |
| 20260902130204 | 15 | 101 | 1.6 | 4.8 | 0.00 | 0.00 | 0.00 | 87 | 1007.6 |
| 20260902123704 | 16 | 101 | 1.6 | 3.2 | 0.00 | 0.00 | 0.00 | 86 | 1007.8 |
| 20260902123204 | 16 | 101 | 1.6 | 8.0 | 0.00 | 0.00 | 0.00 | 85 | 1007.8 |
| 20260902120704 | 16 | 115 | 1.6 | 4.8 | 0.00 | 0.00 | 0.00 | 85 | 1007.9 |
| 20260902120204 | 16 | 113 | 1.6 | 8.0 | 0.00 | 0.00 | 0.00 | 86 | 1007.9 |
| 20260902113703 | 15 | 114 | 3.2 | 4.8 | 0.00 | 0.00 | 0.00 | 87 | 1008.1 |
| 20260902110704 | 15 | 93 | 3.2 | 4.8 | 0.00 | 0.00 | 0.00 | 87 | 1008.4 |
| 20260902110203 | 15 | 119 | 1.6 | 4.8 | 0.00 | 0.00 | 0.00 | 87 | 1008.4 |
| 20260902103704 | 15 | 141 | 3.2 | 4.8 | 0.00 | 0.00 | 0.00 | 89 | 1008.5 |
| 20260902103204 | 15 | 111 | 3.2 | 8.0 | 0.00 | 0.00 | 0.00 | 89 | 1008.5 |
| 20260902100704 | 15 | 103 | 1.6 | 4.8 | 0.00 | 0.00 | 0.00 | 89 | 1008.8 |
| 20260902100204 | 15 | 83 | 3.2 | 4.8 | 0.00 | 0.00 | 0.00 | 89 | 1008.8 |
| 20260902093204 | 16 | 81 | 1.6 | 4.8 | 0.00 | 0.00 | 0.00 | 89 | 1008.8 |
| 20260902090704 | 16 | 154 | 1.6 | 8.0 | 0.00 | 0.00 | 0.00 | 88 | 1008.9 |
| 20260902090205 | 16 | 188 | 1.6 | 4.8 | 0.00 | 0.00 | 0.00 | 89 | 1009.0 |
| 20260902083704 | 16 | 115 | 3.2 | 9.7 | 0.00 | 0.00 | 0.00 | 88 | 1009.3 |
| 20260902083204 | 16 | 128 | 1.6 | 4.8 | 0.00 | 0.00 | 0.00 | 87 | 1009.4 |
| 20260902080703 | 16 | 106 | 1.6 | 4.8 | 0.00 | 0.00 | 0.00 | 87 | 1009.4 |
| 20260902080204 | 16 | 84 | 1.6 | 4.8 | 0.00 | 0.00 | 0.00 | 87 | 1009.4 |